Regional Weather Roundup
Issued by NWS Sioux Falls, SD

Home | Current Version | Previous Version | Text Only | Print | Product List | Glossary Off
Versions: 1 2 3 4 5 6 7 8 9 10 11 12 13 14 15 16 17 18 19 20 21 22 23 24 25 26 27 28 29 30 31 32 33 34 35 36 37 38 39 40 41 42 43 44 45 46 47 48 49 50

000
ASUS43 KFSD 311702
RWRFSD

WEATHER ROUNDUP FOR SE SOUTH DAKOTA/SW MINNESOTA/NW IOWA
NATIONAL WEATHER SERVICE SIOUX FALLS SD
1100 AM CST SAT JAN 31 2015

NOTE: "FAIR" INDICATES FEW OR NO CLOUDS BELOW 12,000 FEET WITH NO
SIGNIFICANT WEATHER AND OR OBSTRUCTIONS TO VISIBILITY.


SDZ038>040-050-052>070-311800-
SOUTHEAST SOUTH DAKOTA

CITY           SKY/WX    TMP DP  RH WIND       PRES   REMARKS
CHAMBERLAIN    NOT AVBL
HURON          CLOUDY    23  19  85 NE15      30.19R WCI  10
MADISON        CLOUDY    19  19 100 E17G24    30.14S FOG     WCI   4
MITCHELL       CLOUDY    26  24  92 NE16      30.16R FOG     WCI  14
SIOUX FALLS    CLOUDY    26  24  92 NE15      30.13F FOG     WCI  14
WINNER         FRZ RAIN  26  24  92 NE16      30.08F VSB<1/4 WCI  14
YANKTON        CLOUDY    30  27  86 NE15      30.10S WCI  19
$$

MNZ071-072-080-081-089-090-097-098-311800-
SOUTHWEST MINNESOTA

CITY           SKY/WX    TMP DP  RH WIND       PRES   REMARKS
FAIRMONT       CLOUDY    25  21  86 N9        30.15F WCI  15
JACKSON        CLOUDY    28  27  93 N14       30.15S WCI  17
LUVERNE        CLOUDY    28  27  93 NE15      30.14S FOG     WCI  17
MARSHALL       CLOUDY    23  21  93 N12       30.22R WCI  12
MONTEVIDEO     CLOUDY    25  23  93 NE7       30.24R FOG     WCI  17
PIPESTONE      FOG       23  21  93 E6        30.14S VSB 1/4 WCI  16
REDWOOD FALLS  CLOUDY    26  24  92 N9        30.20S FOG     WCI  17
TRACY          FOG       25  24  96 N8        30.19S VSB 3/4 WCI  16
WINDOM         CLOUDY    27  25  93 N13       30.17R FOG     WCI  16
WORTHINGTON    CLOUDY    25  21  86 NE13      30.15S WCI  13
$$

IAZ001>003-012>014-020>022-031-032-NEZ013-014-SDZ071-311800-
NORTHWEST IOWA

CITY           SKY/WX    TMP DP  RH WIND       PRES   REMARKS
ESTHERVILLE    CLOUDY    26  25  96 NE10      30.15S FOG     WCI  16
SIOUX CITY     CLOUDY    37  34  89 E6        30.11F
SPENCER        CLOUDY    28  25  88 NE12      30.15S FOG     WCI  18
$$

ABBREVIATIONS USED IN REMARKS
   TC - TEMPERATURE IN CELSIUS
  WCI - WIND CHILL INDEX
   HX - HEAT INDEX
  VSB - VISIBILITY



USA.gov is the U.S. government's official web portal to all federal, state and local government web resources and services.